NFC4TP EDDP-LGAV

Flight info

Callsign NFC4TP
Flight time 2h 10m
Altitude 33000
Route DRN2Q DRN Z21 OMELO DCT EVIKU DCT PEPIK DCT XOMBA DCT KEROP DCT XENIT DCT IBISI DCT MAKED DCT SKP UM749 ROPOX ROPOX1Q
Aircraft B77L/H-SDE1E2E3FGHIJ2J3J4J5M1RWXY/LB1D1

Departure

Time 2026-05-06 18:24
Airport Leipzig/Halle Airport (EDDP)

Arrival

Time 2026-05-06 20:35
Airport Athens Eleftherios Venizelos International Airport (LGAV)
Time Latitude Longitude Altitude Speed Heading
2026-05-06 17:57 51.40834 12.24334 470 ft 0 kts 85°
2026-05-06 18:14 51.40833 12.24318 468 ft 4 kts 85°
2026-05-06 18:14 51.40831 12.24279 469 ft 4 kts 79°
2026-05-06 18:14 51.40821 12.24247 468 ft 4 kts 21°
2026-05-06 18:15 51.40796 12.24244 469 ft 4 kts 354°
2026-05-06 18:15 51.40785 12.24246 466 ft 1 kts 355°
2026-05-06 18:16 51.40846 12.24238 470 ft 19 kts 355°
2026-05-06 18:16 51.40991 12.24220 469 ft 17 kts 355°
2026-05-06 18:17 51.41071 12.24134 473 ft 15 kts 278°
2026-05-06 18:17 51.41066 12.23968 478 ft 15 kts 265°
2026-05-06 18:17 51.41054 12.23722 483 ft 30 kts 266°
2026-05-06 18:17 51.41038 12.23368 481 ft 33 kts 266°
2026-05-06 18:18 51.41021 12.23013 480 ft 32 kts 265°
2026-05-06 18:18 51.41006 12.22690 473 ft 26 kts 265°
2026-05-06 18:18 51.40994 12.22450 470 ft 19 kts 265°
2026-05-06 18:18 51.41033 12.22316 467 ft 13 kts 336°
2026-05-06 18:19 51.41072 12.22205 468 ft 12 kts 271°
2026-05-06 18:19 51.41062 12.22011 469 ft 26 kts 265°
2026-05-06 18:19 51.41048 12.21715 473 ft 27 kts 265°
2026-05-06 18:19 51.41033 12.21391 464 ft 30 kts 265°
2026-05-06 18:20 51.41017 12.21056 453 ft 31 kts 265°
2026-05-06 18:20 51.41003 12.20756 447 ft 23 kts 266°
2026-05-06 18:20 51.40999 12.20538 430 ft 15 kts 289°
2026-05-06 18:20 51.41066 12.20492 427 ft 11 kts
2026-05-06 18:21 51.41140 12.20527 439 ft 11 kts 29°
2026-05-06 18:21 51.41166 12.20601 444 ft 0 kts 83°
2026-05-06 18:23 51.41167 12.20615 431 ft 10 kts 83°
2026-05-06 18:23 51.41189 12.21066 456 ft 72 kts 86°
2026-05-06 18:23 51.41240 12.22144 471 ft 126 kts 85°
2026-05-06 18:23 51.41319 12.23803 475 ft 171 kts 85°
2026-05-06 18:24 51.41412 12.25780 798 ft 177 kts 83°
2026-05-06 18:24 51.41489 12.27716 1412 ft 176 kts 84°
2026-05-06 18:24 51.41577 12.29777 1663 ft 197 kts 85°
2026-05-06 18:24 51.41680 12.32065 1963 ft 214 kts 85°
2026-05-06 18:25 51.41792 12.34534 2228 ft 235 kts 86°
2026-05-06 18:25 51.41917 12.37218 2662 ft 248 kts 86°
2026-05-06 18:25 51.42045 12.40042 3158 ft 260 kts 86°
2026-05-06 18:25 51.42185 12.42976 3750 ft 269 kts 86°
2026-05-06 18:26 51.42329 12.46002 4368 ft 277 kts 86°
2026-05-06 18:26 51.42475 12.49103 5085 ft 280 kts 86°
2026-05-06 18:26 51.42619 12.52174 5822 ft 281 kts 86°
2026-05-06 18:26 51.42748 12.55353 6472 ft 283 kts 92°
2026-05-06 18:27 51.42268 12.58377 6936 ft 282 kts 124°
2026-05-06 18:27 51.41182 12.60989 7490 ft 284 kts 126°
2026-05-06 18:27 51.40091 12.63655 8137 ft 287 kts 126°
2026-05-06 18:27 51.39001 12.66354 8812 ft 289 kts 126°
2026-05-06 18:28 51.37909 12.69076 9499 ft 292 kts 126°
2026-05-06 18:28 51.36820 12.71799 10068 ft 297 kts 126°
2026-05-06 18:28 51.35671 12.74665 10290 ft 317 kts 126°
2026-05-06 18:28 51.34441 12.77743 10476 ft 339 kts 125°
2026-05-06 18:29 51.33126 12.81029 10640 ft 361 kts 125°
2026-05-06 18:29 51.31743 12.84496 11050 ft 376 kts 125°
2026-05-06 18:29 51.30322 12.88061 11687 ft 383 kts 125°
2026-05-06 18:29 51.28884 12.91676 12509 ft 387 kts 124°
2026-05-06 18:30 51.27434 12.95308 13411 ft 390 kts 125°
2026-05-06 18:30 51.25962 12.98977 14153 ft 394 kts 126°
2026-05-06 18:30 51.24482 13.02665 14903 ft 397 kts 126°
2026-05-06 18:30 51.22980 13.06394 15623 ft 401 kts 126°
2026-05-06 18:31 51.21469 13.10150 15777 ft 404 kts 126°
2026-05-06 18:31 51.19953 13.13931 15770 ft 404 kts 126°
2026-05-06 18:31 51.18436 13.17696 15785 ft 403 kts 126°
2026-05-06 18:31 51.16909 13.21470 16197 ft 407 kts 126°
2026-05-06 18:32 51.15380 13.25287 16972 ft 410 kts 125°
2026-05-06 18:32 51.13871 13.29080 17734 ft 412 kts 125°
2026-05-06 18:32 51.12333 13.32949 18406 ft 416 kts 125°
2026-05-06 18:32 51.10780 13.36852 19010 ft 420 kts 126°
2026-05-06 18:33 51.09207 13.40800 19554 ft 424 kts 126°
2026-05-06 18:33 51.07615 13.44782 20125 ft 428 kts 126°
2026-05-06 18:33 51.06008 13.48794 20733 ft 432 kts 126°
2026-05-06 18:33 51.04388 13.52836 21336 ft 435 kts 126°
2026-05-06 18:34 51.02753 13.56905 21921 ft 438 kts 126°
2026-05-06 18:34 51.01104 13.61006 22475 ft 443 kts 127°
2026-05-06 18:34 50.99453 13.65150 23037 ft 447 kts 126°
2026-05-06 18:34 50.97794 13.69341 23556 ft 450 kts 126°
2026-05-06 18:35 50.96123 13.73554 24022 ft 453 kts 126°
2026-05-06 18:35 50.94436 13.77789 24491 ft 456 kts 127°
2026-05-06 18:35 50.92705 13.82032 24975 ft 458 kts 129°
2026-05-06 18:35 50.90804 13.86080 25428 ft 458 kts 133°
2026-05-06 18:36 50.88798 13.90027 25879 ft 461 kts 133°
2026-05-06 18:36 50.86787 13.93999 26305 ft 465 kts 133°
2026-05-06 18:36 50.84777 13.98030 26735 ft 468 kts 133°
2026-05-06 18:36 50.82635 14.01903 26739 ft 467 kts 140°
2026-05-06 18:37 50.80259 14.05366 26866 ft 464 kts 143°
2026-05-06 18:37 50.78663 14.07611 27136 ft 466 kts 143°
2026-05-06 18:37 50.75419 14.12203 27773 ft 469 kts 142°
2026-05-06 18:37 50.72993 14.15668 28201 ft 472 kts 142°
2026-05-06 18:38 50.70555 14.19168 28603 ft 474 kts 142°
2026-05-06 18:38 50.68108 14.22683 28931 ft 478 kts 142°
2026-05-06 18:38 50.65639 14.26225 29254 ft 481 kts 142°
2026-05-06 18:38 50.63159 14.29783 29607 ft 484 kts 142°
2026-05-06 18:39 50.60677 14.33353 30027 ft 484 kts 142°
2026-05-06 18:39 50.58185 14.36885 30623 ft 477 kts 143°
2026-05-06 18:39 50.55714 14.40375 30904 ft 479 kts 143°
2026-05-06 18:40 50.50751 14.47454 31365 ft 484 kts 142°
2026-05-06 18:40 50.48280 14.50978 31762 ft 480 kts 143°
2026-05-06 18:40 50.45814 14.54498 32044 ft 481 kts 141°
2026-05-06 18:40 50.43451 14.58231 32437 ft 482 kts 140°
2026-05-06 18:41 50.41098 14.61984 32698 ft 484 kts 140°
2026-05-06 18:41 50.36346 14.69551 32696 ft 485 kts 140°
2026-05-06 18:42 50.31594 14.77084 32744 ft 490 kts 140°
2026-05-06 18:42 50.26753 14.84700 32780 ft 497 kts 140°
2026-05-06 18:43 50.21838 14.92413 32764 ft 504 kts 140°
2026-05-06 18:43 50.16898 15.00149 32763 ft 508 kts 140°
2026-05-06 18:44 50.11861 15.08013 32757 ft 510 kts 140°
2026-05-06 18:44 50.07694 15.14501 32756 ft 510 kts 140°
2026-05-06 18:45 50.02669 15.22295 32727 ft 509 kts 141°
2026-05-06 18:45 49.97657 15.30058 32747 ft 508 kts 141°
2026-05-06 18:46 49.92640 15.37791 32746 ft 508 kts 141°
2026-05-06 18:46 49.87624 15.45502 32746 ft 508 kts 141°
2026-05-06 18:47 49.82607 15.53192 32742 ft 507 kts 142°
2026-05-06 18:47 49.77590 15.60856 32733 ft 506 kts 142°
2026-05-06 18:48 49.72575 15.68491 32742 ft 506 kts 142°
2026-05-06 18:48 49.67564 15.76098 32736 ft 505 kts 142°
2026-05-06 18:49 49.62548 15.83692 32736 ft 505 kts 142°
2026-05-06 18:49 49.57562 15.91213 32702 ft 506 kts 142°
2026-05-06 18:50 49.52523 15.98781 32719 ft 506 kts 142°
2026-05-06 18:50 49.47472 16.06365 32735 ft 507 kts 142°
2026-05-06 18:51 49.42411 16.13938 32744 ft 508 kts 142°
2026-05-06 18:51 49.37346 16.21500 32741 ft 507 kts 142°
2026-05-06 18:52 49.32272 16.29036 32728 ft 508 kts 142°
2026-05-06 18:52 49.27169 16.36570 32737 ft 511 kts 142°
2026-05-06 18:53 49.22052 16.44144 32730 ft 513 kts 142°
2026-05-06 18:53 49.19477 16.47948 32892 ft 514 kts 142°
2026-05-06 18:53 49.16900 16.51748 33112 ft 513 kts 142°
2026-05-06 18:54 49.11838 16.59193 33249 ft 498 kts 142°
2026-05-06 18:54 49.09364 16.62822 33764 ft 490 kts 142°
2026-05-06 18:54 49.06920 16.66399 34231 ft 485 kts 142°
2026-05-06 18:54 49.04496 16.69937 34666 ft 481 kts 142°
2026-05-06 18:55 49.02070 16.73468 34757 ft 486 kts 142°
2026-05-06 18:55 48.97126 16.80647 34757 ft 496 kts 142°
2026-05-06 18:56 48.92082 16.87968 34768 ft 506 kts 142°
2026-05-06 18:56 48.86957 16.95395 34754 ft 511 kts 141°
2026-05-06 18:57 48.81802 17.02843 34766 ft 512 kts 142°
2026-05-06 18:57 48.76519 17.09762 35193 ft 495 kts 150°
2026-05-06 18:57 48.73669 17.12601 35554 ft 488 kts 152°
2026-05-06 18:58 48.70855 17.15457 35928 ft 485 kts 150°
2026-05-06 18:58 48.68110 17.18394 36312 ft 482 kts 149°
2026-05-06 18:58 48.65399 17.21353 36658 ft 479 kts 149°
2026-05-06 18:59 48.59960 17.27271 36761 ft 484 kts 149°
2026-05-06 18:59 48.54425 17.33189 36779 ft 491 kts 150°
2026-05-06 19:00 48.48803 17.39136 36783 ft 496 kts 150°
2026-05-06 19:00 48.43122 17.45119 36788 ft 500 kts 150°
2026-05-06 19:01 48.37402 17.51134 36778 ft 500 kts 149°
2026-05-06 19:01 48.31733 17.57091 36772 ft 494 kts 150°
2026-05-06 19:02 48.26108 17.62978 36784 ft 491 kts 150°
2026-05-06 19:02 48.20508 17.68818 36788 ft 490 kts 150°
2026-05-06 19:03 48.14907 17.74645 36807 ft 491 kts 150°
2026-05-06 19:03 48.09295 17.80467 36798 ft 492 kts 149°
2026-05-06 19:04 48.03659 17.86296 36817 ft 494 kts 149°
2026-05-06 19:04 47.97996 17.92140 36820 ft 496 kts 149°
2026-05-06 19:05 47.92308 17.97996 36811 ft 495 kts 149°
2026-05-06 19:05 47.86735 18.03725 36493 ft 477 kts 149°
2026-05-06 19:05 47.84022 18.06509 36245 ft 474 kts 150°
2026-05-06 19:06 47.81331 18.09264 36009 ft 467 kts 150°
2026-05-06 19:06 47.78699 18.11954 35561 ft 465 kts 150°
2026-05-06 19:06 47.76070 18.14634 35094 ft 467 kts 150°
2026-05-06 19:06 47.73393 18.17354 34958 ft 475 kts 150°
2026-05-06 19:07 47.70603 18.20184 34864 ft 483 kts 150°
2026-05-06 19:07 47.65042 18.25830 34877 ft 493 kts 150°
2026-05-06 19:08 47.59338 18.31610 34864 ft 500 kts 150°
2026-05-06 19:08 47.53575 18.37439 34874 ft 502 kts 149°
2026-05-06 19:09 47.47807 18.43257 34874 ft 501 kts 150°
2026-05-06 19:09 47.42048 18.49049 34875 ft 500 kts 150°
2026-05-06 19:10 47.36303 18.54807 34879 ft 498 kts 150°
2026-05-06 19:10 47.30573 18.60533 34885 ft 497 kts 149°
2026-05-06 19:11 47.24856 18.66235 34885 ft 496 kts 150°
2026-05-06 19:11 47.19132 18.71924 34901 ft 497 kts 150°
2026-05-06 19:12 47.13400 18.77610 34896 ft 497 kts 150°
2026-05-06 19:12 47.07668 18.83279 34890 ft 497 kts 149°
2026-05-06 19:13 47.01928 18.88942 34894 ft 498 kts 149°
2026-05-06 19:13 46.96178 18.94601 34907 ft 498 kts 149°
2026-05-06 19:14 46.90421 19.00251 34916 ft 499 kts 149°
2026-05-06 19:14 46.84649 19.05898 34914 ft 500 kts 149°
2026-05-06 19:15 46.78867 19.11543 34909 ft 500 kts 149°
2026-05-06 19:15 46.73087 19.17175 34917 ft 500 kts 149°
2026-05-06 19:16 46.67298 19.22796 34920 ft 500 kts 149°
2026-05-06 19:16 46.61542 19.28368 34938 ft 500 kts 150°
2026-05-06 19:17 46.55737 19.33977 34893 ft 500 kts 149°
2026-05-06 19:17 46.49903 19.39598 34921 ft 500 kts 149°
2026-05-06 19:18 46.44099 19.45178 34920 ft 500 kts 149°
2026-05-06 19:18 46.38301 19.50736 34924 ft 500 kts 149°
2026-05-06 19:19 46.32495 19.56288 34920 ft 500 kts 149°
2026-05-06 19:19 46.26689 19.61825 34912 ft 499 kts 149°
2026-05-06 19:20 46.20889 19.67343 34922 ft 500 kts 150°
2026-05-06 19:20 46.14813 19.72094 34921 ft 495 kts 160°
2026-05-06 19:21 46.08504 19.75914 34922 ft 495 kts 160°
2026-05-06 19:21 46.02154 19.79776 34921 ft 495 kts 160°
2026-05-06 19:22 45.95816 19.83670 34924 ft 496 kts 160°
2026-05-06 19:22 45.89481 19.87578 34918 ft 495 kts 160°
2026-05-06 19:23 45.83147 19.91480 34922 ft 495 kts 160°
2026-05-06 19:23 45.76811 19.95367 34922 ft 496 kts 160°
2026-05-06 19:24 45.70463 19.99251 34905 ft 496 kts 160°
2026-05-06 19:24 45.64111 20.03128 34917 ft 497 kts 160°
2026-05-06 19:25 45.57738 20.07009 34917 ft 498 kts 160°
2026-05-06 19:25 45.51355 20.10883 34921 ft 499 kts 160°
2026-05-06 19:26 45.44954 20.14759 34921 ft 500 kts 160°
2026-05-06 19:26 45.38596 20.18599 34904 ft 500 kts 160°
2026-05-06 19:27 45.32187 20.22464 34909 ft 501 kts 161°
2026-05-06 19:27 45.25761 20.26327 34910 ft 503 kts 161°
2026-05-06 19:28 45.19305 20.30200 34917 ft 504 kts 161°
2026-05-06 19:28 45.12832 20.34075 34919 ft 505 kts 161°
2026-05-06 19:29 45.06348 20.37943 34919 ft 506 kts 161°
2026-05-06 19:29 44.99838 20.41818 34914 ft 508 kts 161°
2026-05-06 19:30 44.93321 20.45689 34914 ft 509 kts 161°
2026-05-06 19:30 44.86787 20.49559 34914 ft 509 kts 162°
2026-05-06 19:31 44.81356 20.52769 34914 ft 509 kts 162°
2026-05-06 19:31 44.71561 20.58546 34915 ft 509 kts 161°
2026-05-06 19:32 44.65036 20.62378 34908 ft 509 kts 162°
2026-05-06 19:32 44.58500 20.66209 34921 ft 509 kts 162°
2026-05-06 19:33 44.51944 20.70045 34927 ft 510 kts 162°
2026-05-06 19:33 44.45390 20.73869 34921 ft 511 kts 161°
2026-05-06 19:34 44.38816 20.77693 34930 ft 513 kts 161°
2026-05-06 19:34 44.32214 20.81527 34929 ft 514 kts 161°
2026-05-06 19:35 44.25718 20.85619 34930 ft 517 kts 159°
2026-05-06 19:35 44.19215 20.89949 34911 ft 518 kts 158°
2026-05-06 19:36 44.12692 20.94250 34924 ft 518 kts 158°
2026-05-06 19:36 44.06154 20.98491 34931 ft 518 kts 159°
2026-05-06 19:37 43.99608 21.02713 34920 ft 518 kts 159°
2026-05-06 19:37 43.93067 21.06924 34934 ft 518 kts 159°
2026-05-06 19:38 43.86516 21.11132 34937 ft 518 kts 159°
2026-05-06 19:38 43.79977 21.15323 34936 ft 518 kts 159°
2026-05-06 19:39 43.73436 21.19508 34931 ft 518 kts 159°
2026-05-06 19:39 43.66891 21.23683 34949 ft 519 kts 159°
2026-05-06 19:40 43.60322 21.27857 34947 ft 520 kts 158°
2026-05-06 19:40 43.53749 21.32030 34943 ft 520 kts 158°
2026-05-06 19:41 43.47167 21.36199 34972 ft 521 kts 158°
2026-05-06 19:41 43.40575 21.40362 34974 ft 522 kts 158°
2026-05-06 19:42 43.33979 21.44517 34977 ft 521 kts 158°
2026-05-06 19:42 43.27440 21.48633 34981 ft 520 kts 158°
2026-05-06 19:43 43.20846 21.52770 34987 ft 521 kts 158°
2026-05-06 19:43 43.14244 21.56900 34997 ft 522 kts 158°
2026-05-06 19:44 43.07643 21.61018 34990 ft 522 kts 158°
2026-05-06 19:44 43.01031 21.65140 34992 ft 522 kts 158°
2026-05-06 19:45 42.94390 21.69144 35003 ft 521 kts 162°
2026-05-06 19:45 42.87531 21.72364 34997 ft 521 kts 164°
2026-05-06 19:46 42.80653 21.75505 35003 ft 521 kts 164°
2026-05-06 19:46 42.73779 21.78679 35007 ft 522 kts 164°
2026-05-06 19:47 42.66900 21.81873 35007 ft 523 kts 163°
2026-05-06 19:47 42.60054 21.85059 35011 ft 524 kts 163°
2026-05-06 19:48 42.53157 21.88261 35010 ft 524 kts 163°
2026-05-06 19:48 42.46255 21.91452 35006 ft 524 kts 164°
2026-05-06 19:49 42.39338 21.94636 35017 ft 525 kts 164°
2026-05-06 19:49 42.32422 21.97822 35020 ft 525 kts 164°
2026-05-06 19:50 42.25502 22.00998 35010 ft 525 kts 164°
2026-05-06 19:50 42.18581 22.04167 35009 ft 525 kts 164°
2026-05-06 19:51 42.11655 22.07332 35021 ft 526 kts 164°
2026-05-06 19:51 42.04728 22.10485 35018 ft 525 kts 164°
2026-05-06 19:52 41.97804 22.13635 35018 ft 525 kts 164°
2026-05-06 19:52 41.90876 22.16780 35012 ft 526 kts 164°
2026-05-06 19:53 41.83944 22.19918 35021 ft 526 kts 164°
2026-05-06 19:53 41.76997 22.23056 35028 ft 527 kts 164°
2026-05-06 19:54 41.70083 22.26173 35011 ft 528 kts 164°
2026-05-06 19:54 41.63126 22.29302 35016 ft 527 kts 164°
2026-05-06 19:55 41.56161 22.32425 35021 ft 528 kts 164°
2026-05-06 19:55 41.49219 22.35531 34992 ft 521 kts 164°
2026-05-06 19:56 41.42424 22.38566 34809 ft 509 kts 164°
2026-05-06 19:56 41.39071 22.40062 34659 ft 506 kts 164°
2026-05-06 19:56 41.35729 22.41551 34382 ft 507 kts 164°
2026-05-06 19:57 41.32378 22.43040 33973 ft 510 kts 164°
2026-05-06 19:57 41.29000 22.44539 33522 ft 513 kts 164°
2026-05-06 19:57 41.25611 22.46044 33195 ft 512 kts 164°
2026-05-06 19:57 41.22236 22.47541 33086 ft 510 kts 164°
2026-05-06 19:58 41.15494 22.50526 33056 ft 513 kts 164°
2026-05-06 19:58 41.08790 22.53946 33064 ft 519 kts 159°
2026-05-06 19:59 41.02166 22.57846 33057 ft 522 kts 158°
2026-05-06 19:59 40.95532 22.61745 33054 ft 522 kts 159°
2026-05-06 20:00 40.88939 22.65571 33050 ft 520 kts 159°
2026-05-06 20:00 40.82328 22.69385 33059 ft 518 kts 159°
2026-05-06 20:01 40.75713 22.73191 33054 ft 517 kts 159°
2026-05-06 20:01 40.69115 22.76979 33042 ft 517 kts 159°
2026-05-06 20:02 40.62528 22.80756 33051 ft 516 kts 159°
2026-05-06 20:02 40.55943 22.84522 33050 ft 516 kts 159°
2026-05-06 20:03 40.49393 22.88262 33052 ft 517 kts 159°
2026-05-06 20:03 40.42784 22.92025 33046 ft 518 kts 159°
2026-05-06 20:04 40.36120 22.95810 33051 ft 519 kts 159°
2026-05-06 20:04 40.29539 22.99546 33049 ft 519 kts 159°
2026-05-06 20:05 40.22915 23.03294 33045 ft 519 kts 159°
2026-05-06 20:05 40.16299 23.07028 33053 ft 518 kts 159°
2026-05-06 20:06 40.09671 23.10763 33059 ft 519 kts 159°
2026-05-06 20:06 40.03037 23.14494 33049 ft 519 kts 159°
2026-05-06 20:07 39.96416 23.18211 33048 ft 518 kts 158°
2026-05-06 20:07 39.89789 23.21924 33051 ft 518 kts 158°
2026-05-06 20:08 39.83190 23.25607 33047 ft 518 kts 158°
2026-05-06 20:08 39.76574 23.29295 33049 ft 517 kts 158°
2026-05-06 20:09 39.69970 23.32972 33049 ft 516 kts 158°
2026-05-06 20:09 39.63379 23.36632 33047 ft 514 kts 158°
2026-05-06 20:10 39.56802 23.40277 33047 ft 514 kts 158°
2026-05-06 20:10 39.50233 23.43908 33053 ft 513 kts 158°
2026-05-06 20:11 39.43673 23.47529 33051 ft 512 kts 158°
2026-05-06 20:11 39.37115 23.51140 33031 ft 512 kts 158°
2026-05-06 20:12 39.30557 23.54745 33023 ft 512 kts 158°
2026-05-06 20:12 39.23994 23.58345 33020 ft 512 kts 158°
2026-05-06 20:13 39.17336 23.61379 33009 ft 511 kts 167°
2026-05-06 20:13 39.13869 23.62328 32760 ft 504 kts 173°
2026-05-06 20:13 39.10415 23.62849 32329 ft 496 kts 176°
2026-05-06 20:14 39.06975 23.63290 31509 ft 498 kts 176°
2026-05-06 20:14 39.03509 23.63757 30503 ft 504 kts 176°
2026-05-06 20:14 39.00009 23.64259 29541 ft 508 kts 175°
2026-05-06 20:14 38.96496 23.64780 28781 ft 506 kts 175°
2026-05-06 20:15 38.93024 23.65299 28229 ft 499 kts 175°
2026-05-06 20:15 38.89599 23.65808 27701 ft 487 kts 175°
2026-05-06 20:15 38.86296 23.66298 26625 ft 472 kts 175°
2026-05-06 20:15 38.83077 23.66773 25925 ft 457 kts 175°
2026-05-06 20:16 38.79971 23.67230 25419 ft 443 kts 175°
2026-05-06 20:16 38.76945 23.67674 24931 ft 432 kts 175°
2026-05-06 20:16 38.73976 23.68107 24457 ft 427 kts 175°
2026-05-06 20:16 38.71008 23.68537 23991 ft 433 kts 175°
2026-05-06 20:17 38.67956 23.68979 23469 ft 449 kts 175°
2026-05-06 20:17 38.64807 23.69437 22877 ft 460 kts 175°
2026-05-06 20:17 38.61648 23.69900 22324 ft 451 kts 175°
2026-05-06 20:17 38.58586 23.70350 21799 ft 436 kts 175°
2026-05-06 20:18 38.55628 23.70787 21315 ft 420 kts 175°
2026-05-06 20:18 38.52762 23.71207 20839 ft 408 kts 175°
2026-05-06 20:18 38.50010 23.71608 20410 ft 400 kts 175°
2026-05-06 20:18 38.47250 23.72009 19970 ft 400 kts 176°
2026-05-06 20:19 38.44448 23.72413 19542 ft 414 kts 176°
2026-05-06 20:19 38.41522 23.72832 19062 ft 432 kts 175°
2026-05-06 20:19 38.38541 23.73264 18544 ft 428 kts 175°
2026-05-06 20:19 38.35624 23.73691 18003 ft 415 kts 175°
2026-05-06 20:20 38.32770 23.74110 17481 ft 400 kts 175°
2026-05-06 20:20 38.30083 23.74501 17024 ft 387 kts 175°
2026-05-06 20:20 38.27442 23.74881 16582 ft 377 kts 175°
2026-05-06 20:20 38.24851 23.75255 16158 ft 373 kts 175°
2026-05-06 20:21 38.22258 23.75629 15742 ft 380 kts 175°
2026-05-06 20:21 38.19563 23.76008 15321 ft 399 kts 177°
2026-05-06 20:21 38.16799 23.75783 14811 ft 396 kts 197°
2026-05-06 20:21 38.14381 23.74343 14346 ft 376 kts 216°
2026-05-06 20:22 38.12954 23.73076 14049 ft 364 kts 216°
2026-05-06 20:22 38.10900 23.71297 13563 ft 351 kts 215°
2026-05-06 20:22 38.08927 23.69626 13145 ft 341 kts 215°
2026-05-06 20:22 38.06957 23.67966 12714 ft 339 kts 215°
2026-05-06 20:23 38.04965 23.66291 12308 ft 351 kts 215°
2026-05-06 20:23 38.02861 23.64522 11874 ft 371 kts 215°
2026-05-06 20:23 38.00708 23.62719 11412 ft 367 kts 214°
2026-05-06 20:23 37.98624 23.60978 11125 ft 348 kts 214°
2026-05-06 20:24 37.96670 23.59345 10951 ft 324 kts 214°
2026-05-06 20:24 37.94861 23.57833 10804 ft 300 kts 214°
2026-05-06 20:24 37.93184 23.56434 10669 ft 277 kts 215°
2026-05-06 20:24 37.91631 23.55138 10557 ft 260 kts 215°
2026-05-06 20:25 37.90089 23.53849 10527 ft 274 kts 215°
2026-05-06 20:25 37.88464 23.52490 10285 ft 285 kts 214°
2026-05-06 20:25 37.86788 23.51094 9773 ft 287 kts 214°
2026-05-06 20:25 37.85143 23.49725 9381 ft 278 kts 214°
2026-05-06 20:26 37.83559 23.48408 8989 ft 268 kts 214°
2026-05-06 20:26 37.82029 23.47146 8635 ft 258 kts 211°
2026-05-06 20:26 37.80325 23.46425 8331 ft 266 kts 182°
2026-05-06 20:26 37.78486 23.46808 8047 ft 274 kts 156°
2026-05-06 20:27 37.76911 23.48148 7730 ft 274 kts 132°
2026-05-06 20:27 37.75972 23.50174 7394 ft 266 kts 102°
2026-05-06 20:27 37.75745 23.52441 7121 ft 258 kts 95°
2026-05-06 20:27 37.75570 23.54735 6844 ft 267 kts 96°
2026-05-06 20:28 37.75378 23.57093 6535 ft 271 kts 96°
2026-05-06 20:28 37.75185 23.59463 6210 ft 269 kts 96°
2026-05-06 20:28 37.74992 23.61798 5870 ft 265 kts 96°
2026-05-06 20:28 37.74801 23.64066 5609 ft 261 kts 96°
2026-05-06 20:29 37.74608 23.66330 5292 ft 258 kts 97°
2026-05-06 20:29 37.74416 23.68565 4985 ft 253 kts 97°
2026-05-06 20:29 37.74227 23.70748 4678 ft 247 kts 97°
2026-05-06 20:29 37.74225 23.72874 4372 ft 239 kts 79°
2026-05-06 20:30 37.74915 23.74722 4092 ft 231 kts 49°
2026-05-06 20:30 37.77102 23.77453 3791 ft 216 kts 42°
2026-05-06 20:30 37.78260 23.78675 3645 ft 219 kts 38°
2026-05-06 20:31 37.79482 23.79854 3395 ft 221 kts 37°
2026-05-06 20:31 37.80713 23.81020 3112 ft 221 kts 37°
2026-05-06 20:31 37.81936 23.82179 2823 ft 218 kts 37°
2026-05-06 20:31 37.83126 23.83308 2513 ft 207 kts 37°
2026-05-06 20:32 37.84227 23.84354 2279 ft 188 kts 37°
2026-05-06 20:32 37.85230 23.85307 2034 ft 171 kts 37°
2026-05-06 20:32 37.86180 23.86209 1822 ft 171 kts 37°
2026-05-06 20:32 37.87128 23.87105 1594 ft 168 kts 36°
2026-05-06 20:33 37.88066 23.87995 1381 ft 168 kts 38°
2026-05-06 20:33 37.89005 23.88902 1177 ft 169 kts 37°
2026-05-06 20:33 37.89930 23.89779 941 ft 163 kts 36°
2026-05-06 20:33 37.90821 23.90624 689 ft 158 kts 36°
2026-05-06 20:34 37.91692 23.91459 479 ft 155 kts 36°
2026-05-06 20:34 37.92548 23.92272 318 ft 152 kts 36°
2026-05-06 20:34 37.93320 23.93005 298 ft 118 kts 37°
2026-05-06 20:34 37.93836 23.93494 298 ft 77 kts 37°
2026-05-06 20:35 37.94114 23.93757 306 ft 30 kts 39°
2026-05-06 20:35 37.94238 23.93959 306 ft 23 kts 63°
2026-05-06 20:35 37.94272 23.94064 309 ft 10 kts 81°
2026-05-06 20:35 37.94233 23.94125 306 ft 10 kts 171°
2026-05-06 20:36 37.94175 23.94092 306 ft 10 kts 215°
2026-05-06 20:36 37.94121 23.94044 305 ft 9 kts 216°
2026-05-06 20:36 37.94061 23.93986 307 ft 15 kts 217°
2026-05-06 20:36 37.93935 23.93867 307 ft 30 kts 217°
2026-05-06 20:37 37.93754 23.93693 307 ft 33 kts 217°
2026-05-06 20:37 37.93577 23.93525 307 ft 30 kts 216°
2026-05-06 20:37 37.93452 23.93437 307 ft 17 kts 176°
2026-05-06 20:37 37.93374 23.93534 306 ft 17 kts 125°
2026-05-06 20:38 37.93305 23.93651 307 ft 17 kts 127°
2026-05-06 20:38 37.93232 23.93773 306 ft 21 kts 127°
2026-05-06 20:38 37.93139 23.93928 309 ft 21 kts 127°
2026-05-06 20:38 37.93039 23.94000 309 ft 17 kts 206°
2026-05-06 20:39 37.92948 23.93914 309 ft 16 kts 217°
2026-05-06 20:39 37.92858 23.93842 307 ft 15 kts 187°
2026-05-06 20:39 37.92793 23.93899 306 ft 10 kts 128°
2026-05-06 20:39 37.92762 23.93948 308 ft 6 kts 132°
2026-05-06 20:40 37.92725 23.93947 306 ft 6 kts 208°
2026-05-06 20:40 37.92693 23.93917 306 ft 6 kts 218°
2026-05-06 20:40 37.92686 23.93909 306 ft 0 kts 218°